Location: El Hornillo
(40.2499°N, 5.1036°W)
Time: 07:10:16
(UTC+00:00)

Okean 1-7 Rocket - Pass Details

Date: 05 August 2024
Orbit: 613 x 645 km, 82.5° (Epoch: 13 September)

Event Time Altitude Azimuth Distance (km) Brightness Sun altitude
Exits shadow 21:33:12 52° 144° (SE) 774 3.6 -20.3°
Maximum altitude 21:34:00 64° 94° (E) 694 3.5 -20.4°
Drops below altitude 10° 21:38:24 10° 14° (NNE) 2,010 6.6 -21.0°
Sets 21:40:40 0° 11° (NNE) 2,928 7.5 -21.3°
